Starlink 31542

operational
NORAD ID: 59194 Int'l Des: 2024-045 Owner: SPXS Country: US Constellation: starlink
LEOCIRCULAR

Starlink 31542について

説明を読み込み中...

リアルタイム位置

3D地球を読み込み中...

次回通過

高度履歴

Altitude vs Time

uPlot chart will show altitude changes over time

軌道要素

1 59194U 24045S 25343.11469097 .00002475 00000-0 99417-4 0 9999
2 59194 43.0029 243.6734 0001819 251.8978 108.1675 15.27589488 99313
Epoch: Dec 9, 2025 • Age: 9 hours

現在のステータス

高度 486.3 km
速度 7.62 km/s
衛星直下点 -18.99°S, 167.92°W
打ち上げ日 Mar 11, 2024
運用期間 1.7 years
タイプ internet

技術仕様

分類 Payload
質量 730.00 kg
乾燥質量 700.00 kg
総質量 730.00 kg
長さ 0.30 m
直径 4.10 m
スパン 29.00 m
形状 Box + pan
製造者 SPXS
バスタイプ Starlink V2M
フェーズステータス In Orbit
所有者/国 SPXS/US

大規模コンステレーション

Loading constellations...